Regional Weather Roundup
Issued by NWS

Home | Current Version | Previous Version | Text Only | Print | Product List | Glossary On
Versions: 1 2 3 4 5 6 7 8 9 10 11 12 13 14 15 16 17 18 19 20 21 22 23 24 25 26 27 28 29 30 31 32 33 34 35 36 37 38 39 40 41 42 43 44 45 46 47 48 49 50
000
ASUS43 KTOP 191008
RWRKS

WEATHER ROUNDUP FOR KANSAS
NATIONAL WEATHER SERVICE GOODLAND KS
500 AM CDT FRI SEP 19 2014

NOTE:  "FAIR" INDICATES FEW OR NO CLOUDS BELOW 12,000 FEET WITH NO
SIGNIFICANT WEATHER AND/OR OBSTRUCTIONS TO VISIBILITY.

KSZ001>006-013>018-027>032-041>047-191100-
NORTHWEST KANSAS

CITY           SKY/WX    TMP DP  RH WIND       PRES   REMARKS
GOODLAND       CLEAR     63  58  83 SW12      29.93S
HAYS           CLEAR     64  57  77 S12       29.93R
HILL CITY      CLEAR     63  60  90 S5        29.90S
RUSSELL        CLEAR     64  61  90 S13       29.91S
$$

KSZ061>065-074>080-084>089-191100-
SOUTHWEST KANSAS

CITY           SKY/WX    TMP DP  RH WIND       PRES   REMARKS
DODGE CITY     CLEAR     63  57  81 SW9       29.97S
ELKHART          N/A     60  56  87 S7          N/A
GARDEN CITY    CLEAR     60  58  92 S7        29.96S
GREAT BEND     CLEAR     64  59  82 S10       29.95S
LIBERAL        CLEAR     59  54  82 SW7       29.99F
PRATT          CLEAR     63  61  94 S5        29.97S
$$

KSZ066>073-081>083-090>101-191100-
SOUTHEAST KANSAS

CITY           SKY/WX    TMP DP  RH WIND       PRES   REMARKS
CHANUTE        PTCLDY    63  62  97 SE9       29.99R
COFFEYVILLE    CLEAR     64  62  93 SE6       29.98S
HUTCHINSON     CLEAR     65  61  87 S7        29.95S
MEDICINE LODGE   N/A     65  63  93 E5        29.95F
NEWTON         CLEAR     63  57  82 SE7       29.99S
PARSONS        CLEAR     63  62  97 SE5       30.00R
WICHITA INTL   CLEAR     65  62  90 S6        29.95S
WICHITA JABRA  CLEAR     63  62  97 SE6       29.96S
WICHITA MCCONL CLEAR     65  65 100 SE7       29.96S
WINFIELD       CLEAR     65  63  93 SE5       29.97S
$$

KSZ007>012-019>026-033>040-048>060-102>105-191100-
NORTHEAST KANSAS

CITY           SKY/WX    TMP DP  RH WIND       PRES   REMARKS
CONCORDIA      CLEAR     64  63  96 S12       29.93F
EMPORIA        MOCLDY    62  61  96 SE5       29.98S
LAWRENCE       CLOUDY    60  59  96 E6        29.99F FOG
MANHATTAN      CLEAR     62  61  96 CALM      29.95F
MARYSVILLE     MOCLDY    63  61  94 S6        29.95F
OLATHE IND     CLOUDY    61  61 100 SE10      30.01S FOG
OLATHE EXE     FOG       60  60 100 S8        30.00S VSB 1
SALINA         CLEAR     65  62  90 SE6       29.94F
TOPEKA BILLARD CLOUDY    63  62  97 E5        29.99S
TOPEKA FORBES  CLEAR     62  61  96 SE6       29.98S FOG
$$



USA.gov is the U.S. government's official web portal to all federal, state and local government web resources and services.